Location: Newark
(20.1200°S, 168.9600°E)
Time: 10:16:18
(UTC+00:00)

Starlink Launch 2 leader - Visible Passes

Search period start: 06 December 2019 00:00
Search period end: 16 December 2019 00:00
Orbit: 279 x 281 km, 53.0° (Epoch: 13 November)

Date Brightness Start Highest point End Pass type
(mag) Time Alt. Az. Time Alt. Az. Time Alt. Az.
06 Dec 5.8 09:07:46 10° SSW 09:07:50 10° S 09:07:50 10° S visible
07 Dec 5.7 09:09:24 10° SW 09:09:55 15° SW 09:09:55 15° SW visible
08 Dec 5.8 09:11:38 10° WSW 09:12:05 13° WSW 09:12:05 13° WSW visible
09 Dec 4.5 07:40:30 10° S 07:42:09 16° SE 07:43:47 10° E visible
10 Dec 2.8 07:41:42 10° SSW 07:44:07 43° SE 07:46:28 10° NE visible
11 Dec 3.0 07:43:34 10° SW 07:45:59 48° NW 07:48:23 10° NNE visible
12 Dec 5.0 07:46:10 10° W 07:47:49 16° WNW 07:49:27 10° NNW visible
